This is the latest recevied weather packets stored in our database for station/object KE8WMS. If no packets are shown the sender has not sent any weather packets the latest 10 day(s).
| Time | Temp. | Humidity | Pressure | Rain* | Wind** | Luminosity | Snow |
|---|---|---|---|---|---|---|---|
| 1777633478 | 6.11° C | 95% | 1010.5 hPa | 0 mm | - | 4 W/m² | - |
| 1777633175 | 6.11° C | 95% | 1010.6 hPa | 0 mm | - | 10 W/m² | - |
| 1777632872 | 5.56° C | 95% | 1010.3 hPa | 0 mm | - | 10 W/m² | - |
| 1777632567 | 6.11° C | 95% | 1010.2 hPa | 0 mm | - | 6 W/m² | - |
| 1777632266 | 6.11° C | 95% | 1010.1 hPa | 0 mm | - | 3 W/m² | - |
| 1777631962 | 6.11° C | 95% | 1010 hPa | 0 mm | - | 3 W/m² | - |
| 1777631660 | 6.11° C | 95% | 1010.1 hPa | 0 mm | - | 2 W/m² | - |
| 1777631357 | 6.11° C | 95% | 1009.9 hPa | 0 mm | - | 2 W/m² | - |
| 1777631054 | 6.11° C | 95% | 1010.1 hPa | 0 mm | - | 1 W/m² | - |
| 1777630750 | 6.11° C | 95% | 1010.1 hPa | 0 mm | - | 1 W/m² | - |
| 1777630447 | 6.11° C | 95% | 1010.1 hPa | 0 mm | - | 0 W/m² | - |
| 1777630145 | 6.11° C | 94% | 1010.1 hPa | 0 mm | - | 0 W/m² | - |
| 1777629842 | 6.11° C | 94% | 1010 hPa | 0 mm | - | 0 W/m² | - |
| 1777629539 | 6.11° C | 94% | 1010.1 hPa | 1.78 mm | - | 0 W/m² | - |
| 1777629235 | 6.11° C | 94% | 1010.2 hPa | 1.78 mm | - | 0 W/m² | - |
| 1777628931 | 6.11° C | 94% | 1010.5 hPa | 0 mm | - | 0 W/m² | - |
| 1777628628 | 6.11° C | 93% | 1010.6 hPa | 0 mm | - | 0 W/m² | - |
| 1777628324 | 6.11° C | 93% | 1010.1 hPa | 0 mm | - | 0 W/m² | - |
| 1777628021 | 6.67° C | 92% | 1010.5 hPa | 0 mm | - | 0 W/m² | - |
| 1777627720 | 6.67° C | 91% | 1010.8 hPa | 1.27 mm | - | 0 W/m² | - |
| 1777627418 | 6.67° C | 91% | 1010.6 hPa | 3.05 mm | - | 0 W/m² | - |
| 1777627115 | 6.67° C | 89% | 1010.7 hPa | 1.78 mm | - | 0 W/m² | - |
| 1777626812 | 7.22° C | 88% | 1010.8 hPa | 0 mm | - | 0 W/m² | - |
| 1777626509 | 7.22° C | 87% | 1010.9 hPa | 0 mm | - | 0 W/m² | - |
| 1777626208 | 7.22° C | 87% | 1010.7 hPa | 0 mm | - | 0 W/m² | - |
* Rain latest hour (hover to see other rain measurements)
** Current wind speed in m/s (hover to see current wind gust speed)